This demonstration page uses our WeatherBlox Daily Observations layout. Learn more.

Left ArrowRight Arrow

Hourly Observations for August 16, 2021

Temp ( °F °C ) Dew Point ( °F °C ) Humidity (%) Winds ( mph kmh ) Pressure ( in mb ) Visibility ( mi km ) Precip ( " mm )
12:56 am 00:56 Clear 67 19.4 63 17.2 87 87 SSE 12 19 29.97 1015 10 16 0.00 0.00
1:56 am 01:56 Clear 67 19.4 64 17.8 91 91 SSE 8 13 29.96 1015 10 16 0.00 0.00
2:56 am 02:56 Clear 65 18.3 63 17.2 93 93 SE 7 11 29.95 1014 10 16 0.00 0.00
3:56 am 03:56 Clear 66 18.9 64 17.8 93 93 SSE 8 13 29.93 1014 10 16 0.00 0.00
4:56 am 04:56 Clear 66 18.9 64 17.8 93 93 SSE 10 17 29.91 1013 10 16 0.00 0.00
5:56 am 05:56 Clear 66 18.9 64 17.8 93 93 SSE 9 15 29.91 1013 10 16 0.00 0.00
6:47 am 06:47 Partly Cloudy with Mist and Fog 64 18 64 18 100 100 SSE 7 11 29.91 1013 6 10 0.00 0.00
6:56 am 06:56 Mostly Cloudy with Mist and Fog 65 18.3 64 17.8 97 97 SE 8 13 29.92 1013 6 10 0.00 0.00
7:39 am 07:39 Cloudy with Mist and Fog 66 19 64 18 94 94 SSE 9 15 29.91 1013 6 10 0.00 0.00
7:56 am 07:56 Cloudy with Mist and Fog 67 19.4 66 18.9 97 97 SSE 9 15 29.93 1014 6 10 0.00 0.00
8:38 am 08:38 Cloudy 68 20 66 19 94 94 S 10 17 29.92 1013 10 16 0.00 0.00
8:56 am 08:56 Cloudy 69 20.6 67 19.4 93 93 S 8 13 29.95 1014 10 16 0.00 0.00
9:15 am 09:15 Cloudy 70 21 66 19 88 88 S 10 17 29.92 1013 10 16 0.00 0.00
9:56 am 09:56 Cloudy 72 22.2 67 19.4 84 84 S 9 15 29.96 1015 10 16 0.00 0.00
10:18 am 10:18 Mostly Cloudy 73 23 66 19 78 78 S 10 17 29.90 1013 10 16 0.00 0.00
10:56 am 10:56 Cloudy 75 23.9 68 20 79 79 SSW 9 15 29.96 1015 10 16 0.00 0.00
11:27 am 11:27 Mostly Cloudy 75 24 68 20 78 78 SSW 9 15 29.91 1013 9 14 0.00 0.00
11:46 am 11:46 Partly Cloudy 77 25 68 20 74 74 SSE 10 17 29.89 1012 10 16 0.00 0.00
11:56 am 11:56 Mostly Sunny 78 25.6 68 20 71 71 S 8 13 29.95 1014 10 16 0.00 0.00
12:56 pm 12:56 Sunny 82 27.8 69 20.6 65 65 SSE 9 15 29.93 1014 10 16 0.00 0.00
1:56 pm 13:56 Sunny 86 30 65 18.3 49 49 S 15 24 29.91 1013 10 16 0.00 0.00
2:56 pm 14:56 Sunny 86 30 65 18.3 49 49 S 12 19 29.90 1013 10 16 0.00 0.00
3:56 pm 15:56 Sunny 88 31.1 66 18.9 48 48 S 12 19 29.88 1012 10 16 0.00 0.00
4:56 pm 16:56 Sunny 88 31.1 62 16.7 42 42 SSE 14 22 29.86 1011 10 16 0.00 0.00
5:56 pm 17:56 Sunny 86 30 64 17.8 48 48 S 14 22 29.85 1011 10 16 0.00 0.00
6:56 pm 18:56 Sunny 85 29.4 68 20 57 57 SE 8 13 29.85 1011 10 16 0.00 0.00
7:56 pm 19:56 Sunny 81 27.2 70 21.1 69 69 SE 8 13 29.85 1011 10 16 0.00 0.00
8:56 pm 20:56 Clear 76 24.4 69 20.6 79 79 SE 9 15 29.85 1011 10 16 0.00 0.00
9:56 pm 21:56 Clear 73 22.8 68 20 84 84 SE 9 15 29.86 1011 10 16 0.00 0.00
10:56 pm 22:56 Clear 72 22.2 67 19.4 84 84 SSE 10 17 29.87 1011 10 16 0.00 0.00
11:56 pm 23:56 Clear 71 21.7 65 18.3 81 81 SSE 12 19 29.87 1012 10 16 0.00 0.00

Powered by AerisWeather